Year,Month,Day,Hour,Minute,Value (Times are PST for windgust in km/hr)
2007,05,07,00,00,6.40
2007,05,07,00,01,6.40
2007,05,07,00,02,6.40
2007,05,07,00,03,6.40
2007,05,07,00,04,6.40
2007,05,07,00,05,6.40
2007,05,07,00,06,6.40
2007,05,07,00,07,6.40
2007,05,07,00,08,4.80
2007,05,07,00,09,6.40
2007,05,07,00,10,6.40
2007,05,07,00,11,6.40
2007,05,07,00,12,4.80
2007,05,07,00,13,4.80
2007,05,07,00,14,3.20
2007,05,07,00,15,6.40
2007,05,07,00,16,6.40
2007,05,07,00,17,4.80
2007,05,07,00,18,3.20
2007,05,07,00,19,3.20
2007,05,07,00,20,4.80
2007,05,07,00,21,3.20
2007,05,07,00,22,4.80
2007,05,07,00,23,3.20
2007,05,07,00,24,1.60
2007,05,07,00,25,3.20
2007,05,07,00,26,1.60
2007,05,07,00,27,1.60
2007,05,07,00,28,3.20
2007,05,07,00,29,3.20
2007,05,07,00,30,1.60
2007,05,07,00,31,1.60
2007,05,07,00,32,1.60
2007,05,07,00,33,1.60
2007,05,07,00,34,1.60
2007,05,07,00,35,0.00
2007,05,07,00,36,0.00
2007,05,07,00,37,0.00
2007,05,07,00,38,0.00
2007,05,07,00,39,3.20
2007,05,07,00,40,1.60
2007,05,07,00,41,3.20
2007,05,07,00,42,3.20
2007,05,07,00,43,3.20
2007,05,07,00,44,1.60
2007,05,07,00,45,1.60
2007,05,07,00,46,3.20
2007,05,07,00,47,4.80
2007,05,07,00,48,6.40
2007,05,07,00,49,6.40
2007,05,07,00,50,6.40
2007,05,07,00,51,8.10
2007,05,07,00,52,8.10
2007,05,07,00,53,8.10
2007,05,07,00,54,9.60
2007,05,07,00,55,9.60
2007,05,07,00,56,8.10
2007,05,07,00,57,6.40
2007,05,07,00,58,4.80
2007,05,07,00,59,4.80
2007,05,07,01,00,8.10
2007,05,07,01,01,8.10
2007,05,07,01,02,6.40
2007,05,07,01,03,4.80
2007,05,07,01,04,6.40
2007,05,07,01,05,4.80
2007,05,07,01,06,3.20
2007,05,07,01,07,3.20
2007,05,07,01,08,3.20
2007,05,07,01,09,3.20
2007,05,07,01,10,4.80
2007,05,07,01,11,3.20
2007,05,07,01,12,3.20
2007,05,07,01,13,4.80
2007,05,07,01,14,3.20
2007,05,07,01,15,3.20
2007,05,07,01,16,3.20
2007,05,07,01,17,3.20
2007,05,07,01,18,3.20
2007,05,07,01,19,1.60
2007,05,07,01,20,1.60
2007,05,07,01,21,1.60
2007,05,07,01,22,0.00
2007,05,07,01,23,0.00
2007,05,07,01,24,0.00
2007,05,07,01,25,0.00
2007,05,07,01,26,0.00
2007,05,07,01,27,0.00
2007,05,07,01,28,0.00
2007,05,07,01,29,0.00
2007,05,07,01,30,0.00
2007,05,07,01,31,0.00
2007,05,07,01,32,1.60
2007,05,07,01,33,1.60
2007,05,07,01,34,3.20
2007,05,07,01,35,1.60
2007,05,07,01,36,1.60
2007,05,07,01,37,1.60
2007,05,07,01,38,1.60
2007,05,07,01,39,1.60
2007,05,07,01,40,1.60
2007,05,07,01,41,1.60
2007,05,07,01,42,3.20
2007,05,07,01,43,1.60
2007,05,07,01,44,3.20
2007,05,07,01,45,3.20
2007,05,07,01,46,3.20
2007,05,07,01,47,4.80
2007,05,07,01,48,3.20
2007,05,07,01,49,1.60
2007,05,07,01,50,3.20
2007,05,07,01,51,1.60
2007,05,07,01,52,4.80
2007,05,07,01,53,4.80
2007,05,07,01,54,6.40
2007,05,07,01,55,6.40
2007,05,07,01,56,8.10
2007,05,07,01,57,8.10
2007,05,07,01,58,8.10
2007,05,07,01,59,8.10
2007,05,07,02,00,8.10
2007,05,07,02,01,8.10
2007,05,07,02,02,6.40
2007,05,07,02,03,6.40
2007,05,07,02,04,4.80
2007,05,07,02,05,4.80
2007,05,07,02,06,6.40
2007,05,07,02,07,4.80
2007,05,07,02,08,6.40
2007,05,07,02,09,8.10
2007,05,07,02,10,9.60
2007,05,07,02,11,6.40
2007,05,07,02,12,8.10
2007,05,07,02,13,6.40
2007,05,07,02,14,6.40
2007,05,07,02,15,6.40
2007,05,07,02,16,8.10
2007,05,07,02,17,4.80
2007,05,07,02,18,8.10
2007,05,07,02,19,9.60
2007,05,07,02,20,8.10
2007,05,07,02,21,4.80
2007,05,07,02,22,8.10
2007,05,07,02,23,4.80
2007,05,07,02,24,3.20
2007,05,07,02,25,3.20
2007,05,07,02,26,3.20
2007,05,07,02,27,4.80
2007,05,07,02,28,4.80
2007,05,07,02,29,4.80
2007,05,07,02,30,6.40
2007,05,07,02,31,6.40
2007,05,07,02,32,4.80
2007,05,07,02,33,8.10
2007,05,07,02,34,6.40
2007,05,07,02,35,4.80
2007,05,07,02,36,6.40
2007,05,07,02,37,4.80
2007,05,07,02,38,4.80
2007,05,07,02,39,4.80
2007,05,07,02,40,3.20
2007,05,07,02,41,3.20
2007,05,07,02,42,3.20
2007,05,07,02,43,3.20
2007,05,07,02,44,3.20
2007,05,07,02,45,4.80
2007,05,07,02,46,1.60
2007,05,07,02,47,1.60
2007,05,07,02,48,3.20
2007,05,07,02,49,3.20
2007,05,07,02,50,1.60
2007,05,07,02,51,3.20
2007,05,07,02,52,0.00
2007,05,07,02,53,0.00
2007,05,07,02,54,0.00
2007,05,07,02,55,0.00
2007,05,07,02,56,1.60
2007,05,07,02,57,1.60
2007,05,07,02,58,1.60
2007,05,07,02,59,1.60
2007,05,07,03,00,0.00
2007,05,07,03,01,1.60
2007,05,07,03,02,0.00
2007,05,07,03,03,1.60
2007,05,07,03,04,1.60
2007,05,07,03,05,3.20
2007,05,07,03,06,4.80
2007,05,07,03,07,3.20
2007,05,07,03,08,3.20
2007,05,07,03,09,4.80
2007,05,07,03,10,4.80
2007,05,07,03,11,6.40
2007,05,07,03,12,4.80
2007,05,07,03,13,4.80
2007,05,07,03,14,3.20
2007,05,07,03,15,4.80
2007,05,07,03,16,4.80
2007,05,07,03,17,4.80
2007,05,07,03,18,4.80
2007,05,07,03,19,3.20
2007,05,07,03,20,3.20
2007,05,07,03,21,3.20
2007,05,07,03,22,4.80
2007,05,07,03,23,4.80
2007,05,07,03,24,4.80
2007,05,07,03,25,6.40
2007,05,07,03,26,6.40
2007,05,07,03,27,6.40
2007,05,07,03,28,8.10
2007,05,07,03,29,6.40
2007,05,07,03,30,8.10
2007,05,07,03,31,8.10
2007,05,07,03,32,8.10
2007,05,07,03,33,6.40
2007,05,07,03,34,8.10
2007,05,07,03,35,8.10
2007,05,07,03,36,6.40
2007,05,07,03,37,6.40
2007,05,07,03,38,8.10
2007,05,07,03,39,6.40
2007,05,07,03,40,4.80
2007,05,07,03,41,8.10
2007,05,07,03,42,8.10
2007,05,07,03,43,6.40
2007,05,07,03,44,4.80
2007,05,07,03,45,4.80
2007,05,07,03,46,4.80
2007,05,07,03,47,4.80
2007,05,07,03,48,3.20
2007,05,07,03,49,3.20
2007,05,07,03,50,3.20
2007,05,07,03,51,4.80
2007,05,07,03,52,1.60
2007,05,07,03,53,3.20
2007,05,07,03,54,1.60
2007,05,07,03,55,4.80
2007,05,07,03,56,4.80
2007,05,07,03,57,4.80
2007,05,07,03,58,3.20
2007,05,07,03,59,0.00
2007,05,07,04,00,0.00
2007,05,07,04,01,3.20
2007,05,07,04,02,1.60
2007,05,07,04,03,1.60
2007,05,07,04,04,1.60
2007,05,07,04,05,3.20
2007,05,07,04,06,1.60
2007,05,07,04,07,1.60
2007,05,07,04,08,1.60
2007,05,07,04,09,1.60
2007,05,07,04,10,1.60
2007,05,07,04,11,0.00
2007,05,07,04,12,0.00
2007,05,07,04,13,0.00
2007,05,07,04,14,0.00
2007,05,07,04,15,0.00
2007,05,07,04,16,0.00
2007,05,07,04,17,0.00
2007,05,07,04,18,1.60
2007,05,07,04,19,3.20
2007,05,07,04,20,0.00
2007,05,07,04,21,0.00
2007,05,07,04,22,1.60
2007,05,07,04,23,0.00
2007,05,07,04,24,1.60
2007,05,07,04,25,0.00
2007,05,07,04,26,0.00
2007,05,07,04,27,0.00
2007,05,07,04,28,0.00
2007,05,07,04,29,0.00
2007,05,07,04,30,0.00
2007,05,07,04,31,0.00
2007,05,07,04,32,0.00
2007,05,07,04,33,0.00
2007,05,07,04,34,1.60
2007,05,07,04,35,1.60
2007,05,07,04,36,4.80
2007,05,07,04,37,6.40
2007,05,07,04,38,3.20
2007,05,07,04,39,1.60
2007,05,07,04,40,1.60
2007,05,07,04,41,4.80
2007,05,07,04,42,6.40
2007,05,07,04,43,6.40
2007,05,07,04,44,4.80
2007,05,07,04,45,3.20
2007,05,07,04,46,3.20
2007,05,07,04,47,3.20
2007,05,07,04,48,3.20
2007,05,07,04,49,3.20
2007,05,07,04,50,6.40
2007,05,07,04,51,4.80
2007,05,07,04,52,3.20
2007,05,07,04,53,3.20
2007,05,07,04,54,3.20
2007,05,07,04,55,3.20
2007,05,07,04,56,0.00
2007,05,07,04,57,1.60
2007,05,07,04,58,1.60
2007,05,07,04,59,3.20
2007,05,07,05,00,1.60
2007,05,07,05,01,0.00
2007,05,07,05,02,3.20
2007,05,07,05,03,6.40
2007,05,07,05,04,8.10
2007,05,07,05,05,4.80
2007,05,07,05,06,3.20
2007,05,07,05,07,3.20
2007,05,07,05,08,1.60
2007,05,07,05,09,0.00
2007,05,07,05,10,3.20
2007,05,07,05,11,1.60
2007,05,07,05,12,1.60
2007,05,07,05,13,4.80
2007,05,07,05,14,3.20
2007,05,07,05,15,4.80
2007,05,07,05,16,6.40
2007,05,07,05,17,4.80
2007,05,07,05,18,3.20
2007,05,07,05,19,3.20
2007,05,07,05,20,1.60
2007,05,07,05,21,0.00
2007,05,07,05,22,0.00
2007,05,07,05,23,3.20
2007,05,07,05,24,1.60
2007,05,07,05,25,1.60
2007,05,07,05,26,1.60
2007,05,07,05,27,1.60
2007,05,07,05,28,1.60
2007,05,07,05,29,1.60
2007,05,07,05,30,1.60
2007,05,07,05,31,3.20
2007,05,07,05,32,3.20
2007,05,07,05,33,3.20
2007,05,07,05,34,4.80
2007,05,07,05,35,4.80
2007,05,07,05,36,4.80
2007,05,07,05,37,3.20
2007,05,07,05,38,4.80
2007,05,07,05,39,4.80
2007,05,07,05,40,6.40
2007,05,07,05,41,6.40
2007,05,07,05,42,6.40
2007,05,07,05,43,4.80
2007,05,07,05,44,3.20
2007,05,07,05,45,3.20
2007,05,07,05,46,4.80
2007,05,07,05,47,6.40
2007,05,07,05,48,6.40
2007,05,07,05,49,6.40
2007,05,07,05,50,6.40
2007,05,07,05,51,4.80
2007,05,07,05,52,6.40
2007,05,07,05,53,4.80
2007,05,07,05,54,3.20
2007,05,07,05,55,3.20
2007,05,07,05,56,3.20
2007,05,07,05,57,6.40
2007,05,07,05,58,6.40
2007,05,07,05,59,6.40
2007,05,07,06,00,6.40
2007,05,07,06,01,6.40
2007,05,07,06,02,6.40
2007,05,07,06,03,6.40
2007,05,07,06,04,4.80
2007,05,07,06,05,4.80
2007,05,07,06,06,3.20
2007,05,07,06,07,4.80
2007,05,07,06,08,4.80
2007,05,07,06,09,4.80
2007,05,07,06,10,3.20
2007,05,07,06,11,4.80
2007,05,07,06,12,6.40
2007,05,07,06,13,4.80
2007,05,07,06,14,4.80
2007,05,07,06,15,4.80
2007,05,07,06,16,6.40
2007,05,07,06,17,6.40
2007,05,07,06,18,6.40
2007,05,07,06,19,4.80
2007,05,07,06,20,6.40
2007,05,07,06,21,8.10
2007,05,07,06,22,6.40
2007,05,07,06,23,4.80
2007,05,07,06,24,4.80
2007,05,07,06,25,8.10
2007,05,07,06,26,6.40
2007,05,07,06,27,6.40
2007,05,07,06,28,8.10
2007,05,07,06,29,6.40
2007,05,07,06,30,6.40
2007,05,07,06,31,6.40
2007,05,07,06,32,6.40
2007,05,07,06,33,6.40
2007,05,07,06,34,6.40
2007,05,07,06,35,4.80
2007,05,07,06,36,4.80
2007,05,07,06,37,6.40
2007,05,07,06,38,8.10
2007,05,07,06,39,4.80
2007,05,07,06,40,4.80
2007,05,07,06,41,8.10
2007,05,07,06,42,8.10
2007,05,07,06,43,6.40
2007,05,07,06,44,6.40
2007,05,07,06,45,8.10
2007,05,07,06,46,8.10
2007,05,07,06,47,8.10
2007,05,07,06,48,8.10
2007,05,07,06,49,8.10
2007,05,07,06,50,9.60
2007,05,07,06,51,8.10
2007,05,07,06,52,8.10
2007,05,07,06,53,6.40
2007,05,07,06,54,6.40
2007,05,07,06,55,6.40
2007,05,07,06,56,8.10
2007,05,07,06,57,11.30
2007,05,07,06,58,8.10
2007,05,07,06,59,6.40
2007,05,07,07,00,4.80
2007,05,07,07,01,4.80
2007,05,07,07,02,8.10
2007,05,07,07,03,9.60
2007,05,07,07,04,11.30
2007,05,07,07,05,9.60
2007,05,07,07,06,11.30
2007,05,07,07,07,11.30
2007,05,07,07,08,16.10
2007,05,07,07,09,17.70
2007,05,07,07,10,6.40
2007,05,07,07,11,6.40
2007,05,07,07,12,4.80
2007,05,07,07,13,4.80
2007,05,07,07,14,1.60
2007,05,07,07,15,6.40
2007,05,07,07,16,8.10
2007,05,07,07,17,14.50
2007,05,07,07,18,11.30
2007,05,07,07,19,14.50
2007,05,07,07,20,16.10
2007,05,07,07,21,9.60
2007,05,07,07,22,14.50
2007,05,07,07,23,11.30
2007,05,07,07,24,11.30
2007,05,07,07,25,11.30
2007,05,07,07,26,12.90
2007,05,07,07,27,12.90
2007,05,07,07,28,14.50
2007,05,07,07,29,9.60
2007,05,07,07,30,11.30
2007,05,07,07,31,14.50
2007,05,07,07,32,16.10
2007,05,07,07,33,9.60
2007,05,07,07,34,8.10
2007,05,07,07,35,9.60
2007,05,07,07,36,11.30
2007,05,07,07,37,9.60
2007,05,07,07,38,11.30
2007,05,07,07,39,9.60
2007,05,07,07,40,11.30
2007,05,07,07,41,11.30
2007,05,07,07,42,9.60
2007,05,07,07,43,14.50
2007,05,07,07,44,14.50
2007,05,07,07,45,12.90
2007,05,07,07,46,11.30
2007,05,07,07,47,9.60
2007,05,07,07,48,9.60
2007,05,07,07,49,8.10
2007,05,07,07,50,8.10
2007,05,07,07,51,9.60
2007,05,07,07,52,11.30
2007,05,07,07,53,14.50
2007,05,07,07,54,9.60
2007,05,07,07,55,11.30
2007,05,07,07,56,14.50
2007,05,07,07,57,16.10
2007,05,07,07,58,16.10
2007,05,07,07,59,12.90
2007,05,07,08,00,16.10
2007,05,07,08,01,11.30
2007,05,07,08,02,11.30
2007,05,07,08,03,16.10
2007,05,07,08,04,19.30
2007,05,07,08,05,16.10
2007,05,07,08,06,16.10
2007,05,07,08,07,9.60
2007,05,07,08,08,4.80
2007,05,07,08,09,11.30
2007,05,07,08,10,14.50
2007,05,07,08,11,14.50
2007,05,07,08,12,9.60
2007,05,07,08,13,16.10
2007,05,07,08,14,12.90
2007,05,07,08,15,14.50
2007,05,07,08,16,8.10
2007,05,07,08,17,8.10
2007,05,07,08,18,11.30
2007,05,07,08,19,14.50
2007,05,07,08,20,16.10
2007,05,07,08,21,16.10
2007,05,07,08,22,12.90
2007,05,07,08,23,12.90
2007,05,07,08,24,6.40
2007,05,07,08,25,8.10
2007,05,07,08,26,16.10
2007,05,07,08,27,16.10
2007,05,07,08,28,9.60
2007,05,07,08,29,14.50
2007,05,07,08,30,16.10
2007,05,07,08,31,14.50
2007,05,07,08,32,16.10
2007,05,07,08,33,17.70
2007,05,07,08,34,17.70
2007,05,07,08,35,16.10
2007,05,07,08,36,16.10
2007,05,07,08,37,19.30
2007,05,07,08,38,14.50
2007,05,07,08,39,14.50
2007,05,07,08,40,12.90
2007,05,07,08,41,14.50
2007,05,07,08,42,9.60
2007,05,07,08,43,11.30
2007,05,07,08,44,11.30
2007,05,07,08,45,11.30
2007,05,07,08,46,8.10
2007,05,07,08,47,8.10
2007,05,07,08,48,8.10
2007,05,07,08,49,6.40
2007,05,07,08,50,9.60
2007,05,07,08,51,14.50
2007,05,07,08,52,6.40
2007,05,07,08,53,9.60
2007,05,07,08,54,11.30
2007,05,07,08,55,16.10
2007,05,07,08,56,11.30
2007,05,07,08,57,11.30
2007,05,07,08,58,11.30
2007,05,07,08,59,11.30
2007,05,07,09,00,14.50
2007,05,07,09,01,17.70
2007,05,07,09,02,17.70
2007,05,07,09,03,16.10
2007,05,07,09,04,16.10
2007,05,07,09,05,14.50
2007,05,07,09,06,14.50
2007,05,07,09,07,14.50
2007,05,07,09,08,14.50
2007,05,07,09,09,16.10
2007,05,07,09,10,16.10
2007,05,07,09,11,14.50
2007,05,07,09,12,9.60
2007,05,07,09,13,17.70
2007,05,07,09,14,16.10
2007,05,07,09,15,9.60
2007,05,07,09,16,11.30
2007,05,07,09,17,14.50
2007,05,07,09,18,14.50
2007,05,07,09,19,11.30
2007,05,07,09,20,17.70
2007,05,07,09,21,11.30
2007,05,07,09,22,11.30
2007,05,07,09,23,12.90
2007,05,07,09,24,12.90
2007,05,07,09,25,11.30
2007,05,07,09,26,14.50
2007,05,07,09,27,9.60
2007,05,07,09,28,9.60
2007,05,07,09,29,16.10
2007,05,07,09,30,14.50
2007,05,07,09,31,11.30
2007,05,07,09,32,12.90
2007,05,07,09,33,19.30
2007,05,07,09,34,11.30
2007,05,07,09,35,11.30
2007,05,07,09,36,11.30
2007,05,07,09,37,8.10
2007,05,07,09,38,8.10
2007,05,07,09,39,14.50
2007,05,07,09,40,16.10
2007,05,07,09,41,9.60
2007,05,07,09,42,8.10
2007,05,07,09,43,11.30
2007,05,07,09,44,9.60
2007,05,07,09,45,8.10
2007,05,07,09,46,12.90
2007,05,07,09,47,8.10
2007,05,07,09,48,8.10
2007,05,07,09,49,11.30
2007,05,07,09,50,8.10
2007,05,07,09,51,9.60
2007,05,07,09,52,8.10
2007,05,07,09,53,9.60
2007,05,07,09,54,8.10
2007,05,07,09,55,9.60
2007,05,07,09,56,9.60
2007,05,07,09,57,11.30
2007,05,07,09,58,9.60
2007,05,07,09,59,11.30
2007,05,07,10,00,14.50
2007,05,07,10,01,14.50
2007,05,07,10,02,11.30
2007,05,07,10,03,11.30
2007,05,07,10,04,11.30
2007,05,07,10,05,16.10
2007,05,07,10,06,11.30
2007,05,07,10,07,11.30
2007,05,07,10,08,14.50
2007,05,07,10,09,12.90
2007,05,07,10,10,11.30
2007,05,07,10,11,9.60
2007,05,07,10,12,9.60
2007,05,07,10,13,8.10
2007,05,07,10,14,12.90
2007,05,07,10,15,8.10
2007,05,07,10,16,8.10
2007,05,07,10,17,14.50
2007,05,07,10,18,11.30
2007,05,07,10,19,9.60
2007,05,07,10,20,6.40
2007,05,07,10,21,4.80
2007,05,07,10,22,11.30
2007,05,07,10,23,11.30
2007,05,07,10,24,11.30
2007,05,07,10,25,9.60
2007,05,07,10,26,9.60
2007,05,07,10,27,11.30
2007,05,07,10,28,8.10
2007,05,07,10,29,6.40
2007,05,07,10,30,16.10
2007,05,07,10,31,14.50
2007,05,07,10,32,9.60
2007,05,07,10,33,6.40
2007,05,07,10,34,6.40
2007,05,07,10,35,6.40
2007,05,07,10,36,8.10
2007,05,07,10,37,11.30
2007,05,07,10,38,11.30
2007,05,07,10,39,6.40
2007,05,07,10,40,3.20
2007,05,07,10,41,8.10
2007,05,07,10,42,9.60
2007,05,07,10,43,9.60
2007,05,07,10,44,4.80
2007,05,07,10,45,14.50
2007,05,07,10,46,9.60
2007,05,07,10,47,9.60
2007,05,07,10,48,8.10
2007,05,07,10,49,11.30
2007,05,07,10,50,9.60
2007,05,07,10,51,11.30
2007,05,07,10,52,12.90
2007,05,07,10,53,11.30
2007,05,07,10,54,4.80
2007,05,07,10,55,1.60
2007,05,07,10,56,4.80
2007,05,07,10,57,8.10
2007,05,07,10,58,9.60
2007,05,07,10,59,9.60
2007,05,07,11,00,9.60
2007,05,07,11,01,9.60
2007,05,07,11,02,11.30
2007,05,07,11,03,9.60
2007,05,07,11,04,8.10
2007,05,07,11,05,11.30
2007,05,07,11,06,17.70
2007,05,07,11,07,11.30
2007,05,07,11,08,11.30
2007,05,07,11,09,9.60
2007,05,07,11,10,9.60
2007,05,07,11,11,4.80
2007,05,07,11,12,4.80
2007,05,07,11,13,8.10
2007,05,07,11,14,6.40
2007,05,07,11,15,4.80
2007,05,07,11,16,9.60
2007,05,07,11,17,8.10
2007,05,07,11,18,4.80
2007,05,07,11,19,11.30
2007,05,07,11,20,9.60
2007,05,07,11,21,8.10
2007,05,07,11,22,9.60
2007,05,07,11,23,11.30
2007,05,07,11,24,12.90
2007,05,07,11,25,12.90
2007,05,07,11,26,6.40
2007,05,07,11,27,6.40
2007,05,07,11,28,6.40
2007,05,07,11,29,9.60
2007,05,07,11,30,16.10
2007,05,07,11,31,9.60
2007,05,07,11,32,8.10
2007,05,07,11,33,8.10
2007,05,07,11,34,8.10
2007,05,07,11,35,8.10
2007,05,07,11,36,4.80
2007,05,07,11,37,11.30
2007,05,07,11,38,1.60
2007,05,07,11,39,6.40
2007,05,07,11,40,9.60
2007,05,07,11,41,4.80
2007,05,07,11,42,9.60
2007,05,07,11,43,6.40
2007,05,07,11,44,6.40
2007,05,07,11,45,9.60
2007,05,07,11,46,11.30
2007,05,07,11,47,9.60
2007,05,07,11,48,9.60
2007,05,07,11,49,8.10
2007,05,07,11,50,11.30
2007,05,07,11,51,6.40
2007,05,07,11,52,9.60
2007,05,07,11,53,9.60
2007,05,07,11,54,9.60
2007,05,07,11,55,14.50
2007,05,07,11,56,14.50
2007,05,07,11,57,11.30
2007,05,07,11,58,17.70
2007,05,07,11,59,8.10
2007,05,07,12,00,12.90
2007,05,07,12,01,9.60
2007,05,07,12,02,9.60
2007,05,07,12,03,8.10
2007,05,07,12,04,11.30
2007,05,07,12,05,11.30
2007,05,07,12,06,11.30
2007,05,07,12,07,9.60
2007,05,07,12,08,6.40
2007,05,07,12,09,9.60
2007,05,07,12,10,11.30
2007,05,07,12,11,14.50
2007,05,07,12,12,16.10
2007,05,07,12,13,9.60
2007,05,07,12,14,11.30
2007,05,07,12,15,14.50
2007,05,07,12,16,12.90
2007,05,07,12,17,11.30
2007,05,07,12,18,11.30
2007,05,07,12,19,11.30
2007,05,07,12,20,14.50
2007,05,07,12,21,17.70
2007,05,07,12,22,16.10
2007,05,07,12,23,16.10
2007,05,07,12,24,11.30
2007,05,07,12,25,11.30
2007,05,07,12,26,9.60
2007,05,07,12,27,8.10
2007,05,07,12,28,9.60
2007,05,07,12,29,9.60
2007,05,07,12,30,6.40
2007,05,07,12,31,9.60
2007,05,07,12,32,8.10
2007,05,07,12,33,9.60
2007,05,07,12,34,9.60
2007,05,07,12,35,6.40
2007,05,07,12,36,16.10
2007,05,07,12,37,16.10
2007,05,07,12,38,11.30
2007,05,07,12,39,12.90
2007,05,07,12,40,8.10
2007,05,07,12,41,14.50
2007,05,07,12,42,14.50
2007,05,07,12,43,6.40
2007,05,07,12,44,12.90
2007,05,07,12,45,11.30
2007,05,07,12,46,11.30
2007,05,07,12,47,4.80
2007,05,07,12,48,9.60
2007,05,07,12,49,11.30
2007,05,07,12,50,9.60
2007,05,07,12,51,11.30
2007,05,07,12,52,19.30
2007,05,07,12,53,17.70
2007,05,07,12,54,16.10
2007,05,07,12,55,6.40
2007,05,07,12,56,11.30
2007,05,07,12,57,11.30
2007,05,07,12,58,14.50
2007,05,07,12,59,11.30
2007,05,07,13,00,19.30
2007,05,07,13,01,17.70
2007,05,07,13,02,11.30
2007,05,07,13,03,11.30
2007,05,07,13,04,16.10
2007,05,07,13,05,9.60
2007,05,07,13,06,17.70
2007,05,07,13,07,16.10
2007,05,07,13,08,17.70
2007,05,07,13,09,22.50
2007,05,07,13,10,19.30
2007,05,07,13,11,17.70
2007,05,07,13,12,19.30
2007,05,07,13,13,12.90
2007,05,07,13,14,19.30
2007,05,07,13,15,14.50
2007,05,07,13,16,19.30
2007,05,07,13,17,17.70
2007,05,07,13,18,16.10
2007,05,07,13,19,17.70
2007,05,07,13,20,14.50
2007,05,07,13,21,22.50
2007,05,07,13,22,19.30
2007,05,07,13,23,17.70
2007,05,07,13,24,17.70
2007,05,07,13,25,19.30
2007,05,07,13,26,19.30
2007,05,07,13,27,17.70
2007,05,07,13,28,16.10
2007,05,07,13,29,17.70
2007,05,07,13,30,17.70
2007,05,07,13,31,19.30
2007,05,07,13,32,20.90
2007,05,07,13,33,17.70
2007,05,07,13,34,16.10
2007,05,07,13,35,16.10
2007,05,07,13,36,16.10
2007,05,07,13,37,11.30
2007,05,07,13,38,19.30
2007,05,07,13,39,19.30
2007,05,07,13,40,19.30
2007,05,07,13,41,22.50
2007,05,07,13,42,17.70
2007,05,07,13,43,19.30
2007,05,07,13,44,19.30
2007,05,07,13,45,17.70
2007,05,07,13,46,14.50
2007,05,07,13,47,17.70
2007,05,07,13,48,14.50
2007,05,07,13,49,16.10
2007,05,07,13,50,17.70
2007,05,07,13,51,17.70
2007,05,07,13,52,14.50
2007,05,07,13,53,16.10
2007,05,07,13,54,16.10
2007,05,07,13,55,14.50
2007,05,07,13,56,17.70
2007,05,07,13,57,16.10
2007,05,07,13,58,19.30
2007,05,07,13,59,17.70
2007,05,07,14,00,14.50
2007,05,07,14,01,17.70
2007,05,07,14,02,14.50
2007,05,07,14,03,11.30
2007,05,07,14,04,16.10
2007,05,07,14,05,20.90
2007,05,07,14,06,16.10
2007,05,07,14,07,14.50
2007,05,07,14,08,17.70
2007,05,07,14,09,17.70
2007,05,07,14,10,16.10
2007,05,07,14,11,9.60
2007,05,07,14,12,14.50
2007,05,07,14,13,11.30
2007,05,07,14,14,11.30
2007,05,07,14,15,14.50
2007,05,07,14,16,16.10
2007,05,07,14,17,17.70
2007,05,07,14,18,16.10
2007,05,07,14,19,12.90
2007,05,07,14,20,11.30
2007,05,07,14,21,12.90
2007,05,07,14,22,14.50
2007,05,07,14,23,16.10
2007,05,07,14,24,19.30
2007,05,07,14,25,20.90
2007,05,07,14,26,16.10
2007,05,07,14,27,16.10
2007,05,07,14,28,19.30
2007,05,07,14,29,20.90
2007,05,07,14,30,17.70
2007,05,07,14,31,16.10
2007,05,07,14,32,14.50
2007,05,07,14,33,17.70
2007,05,07,14,34,19.30
2007,05,07,14,35,19.30
2007,05,07,14,36,16.10
2007,05,07,14,37,19.30
2007,05,07,14,38,14.50
2007,05,07,14,39,19.30
2007,05,07,14,40,17.70
2007,05,07,14,41,17.70
2007,05,07,14,42,17.70
2007,05,07,14,43,16.10
2007,05,07,14,44,14.50
2007,05,07,14,45,14.50
2007,05,07,14,46,16.10
2007,05,07,14,47,16.10
2007,05,07,14,48,6.40
2007,05,07,14,49,11.30
2007,05,07,14,50,17.70
2007,05,07,14,51,14.50
2007,05,07,14,52,14.50
2007,05,07,14,53,14.50
2007,05,07,14,54,9.60
2007,05,07,14,55,16.10
2007,05,07,14,56,16.10
2007,05,07,14,57,16.10
2007,05,07,14,58,14.50
2007,05,07,14,59,14.50
2007,05,07,15,00,14.50
2007,05,07,15,01,14.50
2007,05,07,15,02,11.30
2007,05,07,15,03,16.10
2007,05,07,15,04,14.50
2007,05,07,15,05,14.50
2007,05,07,15,06,12.90
2007,05,07,15,07,14.50
2007,05,07,15,08,11.30
2007,05,07,15,09,14.50
2007,05,07,15,10,14.50
2007,05,07,15,11,12.90
2007,05,07,15,12,12.90
2007,05,07,15,13,14.50
2007,05,07,15,14,12.90
2007,05,07,15,15,14.50
2007,05,07,15,16,14.50
2007,05,07,15,17,16.10
2007,05,07,15,18,11.30
2007,05,07,15,19,16.10
2007,05,07,15,20,16.10
2007,05,07,15,21,16.10
2007,05,07,15,22,12.90
2007,05,07,15,23,14.50
2007,05,07,15,24,12.90
2007,05,07,15,25,11.30
2007,05,07,15,26,11.30
2007,05,07,15,27,11.30
2007,05,07,15,28,9.60
2007,05,07,15,29,14.50
2007,05,07,15,30,17.70
2007,05,07,15,31,14.50
2007,05,07,15,32,8.10
2007,05,07,15,33,14.50
2007,05,07,15,34,11.30
2007,05,07,15,35,11.30
2007,05,07,15,36,14.50
2007,05,07,15,37,14.50
2007,05,07,15,38,14.50
2007,05,07,15,39,9.60
2007,05,07,15,40,12.90
2007,05,07,15,41,9.60
2007,05,07,15,42,16.10
2007,05,07,15,43,11.30
2007,05,07,15,44,14.50
2007,05,07,15,45,11.30
2007,05,07,15,46,19.30
2007,05,07,15,47,14.50
2007,05,07,15,48,9.60
2007,05,07,15,49,11.30
2007,05,07,15,50,8.10
2007,05,07,15,51,6.40
2007,05,07,15,52,9.60
2007,05,07,15,53,11.30
2007,05,07,15,54,11.30
2007,05,07,15,55,8.10
2007,05,07,15,56,14.50
2007,05,07,15,57,16.10
2007,05,07,15,58,12.90
2007,05,07,15,59,14.50
2007,05,07,16,00,16.10
2007,05,07,16,01,11.30
2007,05,07,16,02,9.60
2007,05,07,16,03,14.50
2007,05,07,16,04,9.60
2007,05,07,16,05,9.60
2007,05,07,16,06,11.30
2007,05,07,16,07,17.70
2007,05,07,16,08,17.70
2007,05,07,16,09,11.30
2007,05,07,16,10,14.50
2007,05,07,16,11,8.10
2007,05,07,16,12,17.70
2007,05,07,16,13,16.10
2007,05,07,16,14,14.50
2007,05,07,16,15,19.30
2007,05,07,16,16,16.10
2007,05,07,16,17,19.30
2007,05,07,16,18,12.90
2007,05,07,16,19,11.30
2007,05,07,16,20,19.30
2007,05,07,16,21,19.30
2007,05,07,16,22,20.90
2007,05,07,16,23,20.90
2007,05,07,16,24,19.30
2007,05,07,16,25,20.90
2007,05,07,16,26,16.10
2007,05,07,16,27,17.70
2007,05,07,16,28,16.10
2007,05,07,16,29,16.10
2007,05,07,16,30,24.20
2007,05,07,16,31,20.90
2007,05,07,16,32,17.70
2007,05,07,16,33,17.70
2007,05,07,16,34,19.30
2007,05,07,16,35,20.90
2007,05,07,16,36,22.50
2007,05,07,16,37,22.50
2007,05,07,16,38,17.70
2007,05,07,16,39,20.90
2007,05,07,16,40,19.30
2007,05,07,16,41,25.70
2007,05,07,16,42,20.90
2007,05,07,16,43,17.70
2007,05,07,16,44,17.70
2007,05,07,16,45,20.90
2007,05,07,16,46,24.20
2007,05,07,16,47,24.20
2007,05,07,16,48,17.70
2007,05,07,16,49,22.50
2007,05,07,16,50,22.50
2007,05,07,16,51,25.70
2007,05,07,16,52,25.70
2007,05,07,16,53,20.90
2007,05,07,16,54,22.50
2007,05,07,16,55,22.50
2007,05,07,16,56,20.90
2007,05,07,16,57,19.30
2007,05,07,16,58,17.70
2007,05,07,16,59,24.20
2007,05,07,17,00,20.90
2007,05,07,17,01,22.50
2007,05,07,17,02,24.20
2007,05,07,17,03,25.70
2007,05,07,17,04,27.40
2007,05,07,17,05,20.90
2007,05,07,17,06,22.50
2007,05,07,17,07,20.90
2007,05,07,17,08,20.90
2007,05,07,17,09,17.70
2007,05,07,17,10,17.70
2007,05,07,17,11,22.50
2007,05,07,17,12,22.50
2007,05,07,17,13,24.20
2007,05,07,17,14,25.70
2007,05,07,17,15,22.50
2007,05,07,17,16,20.90
2007,05,07,17,17,22.50
2007,05,07,17,18,17.70
2007,05,07,17,19,16.10
2007,05,07,17,20,19.30
2007,05,07,17,21,19.30
2007,05,07,17,22,19.30
2007,05,07,17,23,17.70
2007,05,07,17,24,17.70
2007,05,07,17,25,17.70
2007,05,07,17,26,19.30
2007,05,07,17,27,17.70
2007,05,07,17,28,19.30
2007,05,07,17,29,17.70
2007,05,07,17,30,16.10
2007,05,07,17,31,16.10
2007,05,07,17,32,19.30
2007,05,07,17,33,14.50
2007,05,07,17,34,19.30
2007,05,07,17,35,19.30
2007,05,07,17,36,20.90
2007,05,07,17,37,20.90
2007,05,07,17,38,22.50
2007,05,07,17,39,22.50
2007,05,07,17,40,16.10
2007,05,07,17,41,22.50
2007,05,07,17,42,22.50
2007,05,07,17,43,19.30
2007,05,07,17,44,24.20
2007,05,07,17,45,24.20